Regional Weather Roundup
Issued by NWS Cleveland, OH

Home | Current Version | Previous Version | Text Only | Print | Product List | Glossary Off
Versions: 1 2 3 4 5 6 7 8 9 10 11 12 13 14 15 16 17 18 19 20 21 22 23 24 25 26 27 28 29 30 31 32 33 34 35 36 37 38 39 40 41 42 43 44 45 46 47 48 49 50

000
ASUS41 KCLE 172110
RWRCLE
OHIO REGIONAL WEATHER ROUNDUP
NATIONAL WEATHER SERVICE WILMINGTON, OH
500 PM EDT THU APR 17 2014

NOTE: "FAIR" INDICATES FEW OR NO CLOUDS BELOW 12,000 FEET WITH NO
SIGNIFICANT WEATHER AND/OR OBSTRUCTIONS TO VISIBILITY.

OHZ001>008-015>018-024>027-034-035-043-044-172200-
   NORTHWEST OHIO

CITY           SKY/WX    TMP DP  RH WIND       PRES   REMARKS
DEFIANCE       MOSUNNY   69  29  22 SW14G21   30.22F
FINDLAY        SUNNY     66  35  31 S21       30.24F
TOLEDO EXPRESS MOSUNNY   66  30  26 SW14G24   30.23F
TOLEDO METCALF SUNNY     67  31  26 S17       30.25F
LIMA           SUNNY     67  35  30 S13       30.25F
$$

OHZ009>014-019>023-028>033-038-089-172200-
   NORTHEAST OHIO

CITY           SKY/WX    TMP DP  RH WIND       PRES   REMARKS
CLE-HOPKINS    MOSUNNY   66  33  29 SW15G22   30.31F
CLE-LAKEFRONT  SUNNY     65  34  31 S15G22    30.28S
CUY CO. ARPT   MOSUNNY   64  30  27 S16       30.30F
LORAIN-ELYRIA  SUNNY     67  32  27 SW12G22   30.28F
ASHTABULA      SUNNY     62  29  28 S12G24    30.32F
AKRON-CANTON   MOSUNNY   61  29  28 S14       30.31F
WOOSTER        SUNNY     64  32  30 S10       30.30F
MANSFIELD      SUNNY     64  34  32 S15G24    30.29F
YOUNGSTOWN     MOSUNNY   62  26  25 S9G20     30.32F
$$

OHZ042-051>053-060>062-070>072-077>081-172200-
  SOUTHWEST OHIO

CITY           SKY/WX    TMP DP  RH WIND       PRES   REMARKS
CINC-COVINGTON PTSUNNY   66  34  30 S14       30.28F
CINC-LUNKEN    SUNNY     67  36  31 VRB6      30.28F
HAMILTON       SUNNY     70  33  25 VRB6G21   30.28F
DAYTON         MOSUNNY   66  33  29 S10       30.27F
WRIGHT-PAT AFB SUNNY     67  34  29 S14       30.27F
DAYTON GENERAL SUNNY     66  34  30 S12G24    30.27F
WILMINGTON     SUNNY     65  32  29 S14       30.28F
$$

OHZ036-037-039>041-045>050-054>059-063>069-073>076-082>088-172200-
  CENTRAL AND SOUTHEAST OHIO

CITY           SKY/WX    TMP DP  RH WIND       PRES   REMARKS
COLUMBUS       MOSUNNY   68  29  23 SW8       30.29F
OSU AIRPORT    SUNNY     67  31  26 SW13      30.28F
BOLTON FIELD   SUNNY     64  36  34 S9G18     30.29F
RICKENBACK AFB SUNNY     69  22  17 SE10      30.29F
NEWARK         SUNNY     65  28  24 S9G17     30.29F
MARION         SUNNY     65  33  30 SW15G26   30.28F
LANCASTER      SUNNY     66  31  27 SW5       30.30F
ZANESVILLE     SUNNY     66  28  24 SW7       30.31F
NEW PHILLY     SUNNY     65  27  23 S13       30.32F
$$



USA.gov is the U.S. government's official web portal to all federal, state and local government web resources and services.